Weather History for Washington, DC

Change the Weather History Date:

Friday, February 8, 2013

  Actual Average Record
Temperature  
Mean Temperature 39 °F 38 °F  
Max Temperature 44 °F 46 °F 68 °F (1900)
Min Temperature 34 °F 30 °F 0 °F (1895)
Degree Days  
Heating Degree Days 26 27  
Month to date heating degree days 246 222  
Since 1 July heating degree days 2319 2602  
Cooling Degree Days 0 0  
Month to date cooling degree days 0 0  
Year to date cooling degree days 0 0  
Moisture  
Dew Point 32 °F    
Average Humidity 71    
Maximum Humidity 92    
Minimum Humidity 50    
Precipitation  
Precipitation 0.20 in 0.10 in 1.63 in (1961)
Month to date precipitation 0.23 0.76  
Year to date precipitation 2.76 3.57  
Snow  
Snow 0.00 in 0.20 in 6.40 in (1961)
Month to date snowfall 0.4 1.9  
Since 1 July snowfall 1.5 10.3  
Snow Depth 0.00 in    
Sea Level Pressure  
Sea Level Pressure 29.93 in    
Wind  
Wind Speed 12 mph (North)    
Max Wind Speed 32 mph    
Max Gust Speed 46 mph    
Visibility 8 miles    
Events Rain    
T = Trace of Precipitation, MM = Missing Value Source: NWS Daily Summary

Daily Weather History Graph

Daily Weather History Graph

Search for Another Location

Airport:

Trip Planner

Search our weather history database for the weather conditions in past years. The results will help you decide how hot, cold, wet, or windy it might be!

Date:

Astronomy

Feb. 08, 2013 Rise Set
Actual Time 7:07 AM EST 5:38 PM EST
Civil Twilight 6:39 AM EST 6:05 PM EST
Nautical Twilight 6:07 AM EST 6:37 PM EST
Astronomical Twilight 5:36 AM EST 7:08 PM EST
Moon 5:33 AM EST (2/8) 4:09 PM EST (2/8)
Length of Visible Light 11h 26m
Length of Day
10h 30m
Waning Crescent, 3% of the Moon is Illuminated
Feb 8
Waning Crescent
Feb 10
New
Feb 17
First Quarter
Feb 25
Full
Mar 4
Last Quarter

Hourly Weather History & Observations

Time (EST) Temp. Windchill Dew Point Humidity Pressure Visibility Wind Dir Wind Speed Gust Speed Precip Events Conditions
12:52 AM 36.0 °F 29.0 °F 26.1 °F 67% 30.19 in 10.0 mi ENE 9.2 mph - N/A   Overcast
1:16 AM 35.6 °F 28.6 °F 26.6 °F 70% 30.18 in 10.0 mi NE 9.2 mph - N/A   Overcast
1:52 AM 35.1 °F 27.4 °F 27.0 °F 72% 30.16 in 10.0 mi NNE 10.4 mph - 0.00 in Rain Light Rain
2:52 AM 34.0 °F 28.8 °F 28.0 °F 79% 30.13 in 10.0 mi NE 5.8 mph - 0.05 in Rain Light Rain
3:34 AM 33.8 °F 27.7 °F 28.4 °F 81% 30.10 in 8.0 mi NE 6.9 mph - 0.03 in Rain Light Rain
3:52 AM 34.0 °F 28.8 °F 28.9 °F 82% 30.09 in 7.0 mi NNE 5.8 mph - 0.04 in Rain Light Rain
4:52 AM 34.0 °F 27.2 °F 30.0 °F 85% 30.07 in 10.0 mi NNE 8.1 mph - 0.04 in Rain Light Rain
5:52 AM 35.1 °F 27.9 °F 32.0 °F 89% 30.02 in 10.0 mi North 9.2 mph - 0.02 in Rain Light Rain
6:52 AM 36.0 °F 28.5 °F 32.0 °F 86% 30.00 in 10.0 mi North 10.4 mph - 0.01 in Rain Light Rain
7:34 AM 37.4 °F 29.8 °F 33.8 °F 87% 29.98 in 7.0 mi NNE 11.5 mph - 0.01 in Rain Light Rain
7:52 AM 37.0 °F 28.5 °F 34.0 °F 89% 29.98 in 5.0 mi North 13.8 mph - 0.02 in Rain Light Rain
8:52 AM 37.9 °F 29.6 °F 35.1 °F 89% 29.93 in 8.0 mi North 13.8 mph - 0.02 in Rain Light Rain
9:52 AM 39.9 °F 33.4 °F 36.0 °F 86% 29.89 in 10.0 mi North 10.4 mph - 0.00 in   Light Drizzle
10:52 AM 39.9 °F 32.9 °F 36.0 °F 86% 29.86 in 10.0 mi North 11.5 mph - 0.00 in   Overcast
11:20 AM 41.0 °F 34.3 °F 37.4 °F 87% 29.85 in 4.0 mi NNW 11.5 mph - 0.00 in   Light Drizzle
11:29 AM 41.0 °F 33.9 °F 37.4 °F 87% 29.85 in 2.5 mi NNW 12.7 mph - 0.00 in   Light Drizzle
11:52 AM 41.0 °F 34.3 °F 37.9 °F 89% 29.83 in 4.0 mi North 11.5 mph - 0.00 in   Overcast
12:34 PM 42.8 °F 37.0 °F 37.4 °F 81% 29.81 in 5.0 mi NNW 10.4 mph - N/A   Overcast
12:52 PM 41.0 °F 33.5 °F 37.0 °F 86% 29.81 in 6.0 mi NNW 13.8 mph - N/A   Overcast
1:52 PM 43.0 °F 36.4 °F 37.9 °F 82% 29.78 in 7.0 mi NNW 12.7 mph - N/A   Overcast
2:52 PM 43.0 °F 35.4 °F 37.0 °F 80% 29.77 in 7.0 mi NW 16.1 mph - N/A   Overcast
3:52 PM 41.0 °F 33.1 °F 36.0 °F 82% 29.78 in 6.0 mi NW 15.0 mph - 0.00 in   Haze
4:35 PM 41.0 °F 33.5 °F 37.4 °F 87% 29.78 in 6.0 mi NNW 13.8 mph - N/A   Overcast
4:52 PM 42.1 °F 35.7 °F 36.0 °F 79% 29.78 in 7.0 mi NW 11.5 mph - N/A   Mostly Cloudy
5:52 PM 42.1 °F 36.6 °F 35.1 °F 76% 29.79 in 10.0 mi NW 9.2 mph 18.4 mph N/A   Overcast
6:52 PM 41.0 °F 36.4 °F 34.0 °F 76% 29.81 in 10.0 mi Variable 6.9 mph - N/A   Mostly Cloudy
7:52 PM 44.1 °F 37.7 °F 32.0 °F 63% 29.82 in 10.0 mi NW 12.7 mph 25.3 mph N/A   Overcast
8:52 PM 42.1 °F 33.9 °F 26.1 °F 53% 29.85 in 10.0 mi NW 17.3 mph 33.4 mph N/A   Overcast
9:52 PM 39.0 °F 29.6 °F 23.0 °F 53% 29.89 in 10.0 mi NNW 18.4 mph 26.5 mph N/A   Mostly Cloudy
10:52 PM 37.9 °F 27.6 °F 21.9 °F 53% 29.91 in 10.0 mi NNW 20.7 mph 27.6 mph N/A   Overcast
11:52 PM 37.0 °F 26.4 °F 19.9 °F 50% 29.93 in 10.0 mi NW 20.7 mph 35.7 mph N/A   Mostly Cloudy